Location: Gunnison Valley Observatory
(38.5087°N, 106.9386°W)
Time: 16:24:15
(UTC-06:00)

Amateur Radio Satellites - All Passes

Search period start: 29 March 2015 15:54
Search period end: 30 March 2015 15:54
Location: Gunnison Valley Observatory, 38.5087°N, 106.9386°W

Satellite Date Start Highest point End Downlink Frequencies (MHz)
Time Altitude Azimuth
ITAMSAT 1 29 Mar 16:03:49 16:07:08 16° 270° (W) 16:10:13 435.822/435.867
SWISSCUBE 29 Mar 16:08:34 16:11:31 16° 295° (WNW) 16:14:15 437.505
BEESAT 29 Mar 16:11:29 16:14:27 16° 295° (WNW) 16:17:15 436.000
AIST 1 29 Mar 16:12:17 16:16:32 58° 266° (W) 16:20:42
KKS-1 29 Mar 16:16:18 16:20:42 62° 285° (WNW) 16:25:06 437.445
PCSat 29 Mar 16:21:17 16:26:00 29° 308° (NW) 16:30:42 145.827
JAS-2 29 Mar 16:40:37 16:47:26 89° 256° (WSW) 16:55:06 435.910
STARS 29 Mar 16:48:11 16:52:21 43° 288° (WNW) 16:56:31 437.465
JUGNU 29 Mar 16:58:57 17:00:54 12° 185° (S) 17:02:48 437.505
M-CUBED/EXP-1 PRIME 29 Mar 17:31:32 17:34:14 15° 94° (E) 17:37:09 437.505
AO-7 29 Mar 17:36:14 17:43:31 32° 264° (W) 17:50:38 29.400- 29.500
RS-15 29 Mar 17:43:03 17:49:25 19° 102° (ESE) 17:56:33 29.354- 29.394
MOZHAYETS 4 29 Mar 17:52:14 17:56:55 79° 101° (E) 18:01:33
SRMSAT 29 Mar 17:58:16 18:00:27 12° 181° (S) 18:02:37 437.500
CUTE-I 29 Mar 18:23:37 18:28:54 63° 74° (ENE) 18:34:13 437.470
Cubesat XI-IV 29 Mar 18:23:51 18:29:09 64° 74° (ENE) 18:34:29 437.490
BEESAT 2 29 Mar 18:27:34 18:29:19 12° 42° (NE) 18:31:11 435.950
JAS-2 29 Mar 18:29:58 18:33:49 14° 277° (W) 18:37:18 435.910
AUBIESAT-1 29 Mar 18:40:00 18:44:51 72° 106° (ESE) 18:49:33 437.475
PRISM 29 Mar 18:47:58 18:50:21 15° 92° (E) 18:52:54 437.425
SO-50 29 Mar 18:53:25 18:57:45 44° 115° (ESE) 19:02:17 436.795
STRAND 1 29 Mar 18:56:48 18:59:32 15° 90° (E) 19:02:31 437.568
BEESAT 3 29 Mar 19:03:04 19:06:40 29° 51° (NE) 19:10:16 437.485
M-CUBED/EXP-1 PRIME 29 Mar 19:04:44 19:09:31 57° 291° (WNW) 19:14:09 437.505
HO-68 29 Mar 19:16:10 19:19:50 15° 56° (NE) 19:23:52 435.675
GONETS M04 29 Mar 19:24:21 19:32:28 47° 89° (E) 19:40:43
MOZHAYETS 4 29 Mar 19:32:37 19:33:34 10° 296° (WNW) 19:34:14
BRITE-PL 29 Mar 19:33:24 19:35:45 14° 68° (ENE) 19:38:13 437.365/2234.400
AIST 2 29 Mar 19:39:49 19:43:10 22° 48° (NE) 19:46:33 435.215
CUBESAT XI-V 29 Mar 19:40:00 19:44:40 83° 103° (ESE) 19:49:15 437.345
RS-15 29 Mar 19:49:30 20:00:25 87° 119° (ESE) 20:11:32 29.354- 29.394
CANX-2 29 Mar 20:02:21 20:04:47 16° 67° (ENE) 20:07:25 2200.000
BEESAT 2 29 Mar 20:03:53 20:08:01 75° 241° (WSW) 20:12:05 435.950
CUTE-I 29 Mar 20:06:20 20:09:30 15° 270° (W) 20:12:23 437.470
DOVE 4 29 Mar 20:06:36 20:08:19 13° 67° (ENE) 20:10:13 437.250
Cubesat XI-IV 29 Mar 20:06:41 20:09:48 15° 270° (W) 20:12:37 437.490
CUTE 1.7 + AOD 2 29 Mar 20:15:37 20:18:37 20° 69° (ENE) 20:21:47 437.475
AUBIESAT-1 29 Mar 20:16:34 20:19:06 14° 301° (WNW) 20:21:24 437.475
GOMX 1 29 Mar 20:17:14 20:20:53 26° 71° (ENE) 20:24:28 467.674
PRISM 29 Mar 20:22:09 20:26:04 39° 288° (WNW) 20:29:55 437.425
STRAND 1 29 Mar 20:34:12 20:39:13 58° 287° (WNW) 20:44:12 437.568
SO-50 29 Mar 20:34:47 20:38:32 23° 314° (NW) 20:42:18 436.795
AAUSAT CUBESAT 2 29 Mar 20:38:49 20:41:54 21° 69° (ENE) 20:45:06 437.432
BEESAT 3 29 Mar 20:41:17 20:44:37 24° 247° (WSW) 20:47:50 437.485
CUSAT 1 29 Mar 20:41:43 20:43:15 14° 96° (E) 20:44:48 437.405
SEEDS 29 Mar 20:43:32 20:47:17 33° 72° (ENE) 20:51:08 437.485
HO-68 29 Mar 20:59:28 21:06:37 82° 73° (ENE) 21:13:51 435.675
COMPASS 1 29 Mar 21:05:11 21:09:11 48° 74° (ENE) 21:13:17 437.405
Oscar 11 29 Mar 21:06:34 21:09:45 21° 69° (ENE) 21:13:03 145.826/435.025
BRITE-PL 29 Mar 21:09:21 21:14:02 52° 261° (W) 21:18:22 437.365/2234.400
AIST 2 29 Mar 21:17:59 21:21:52 35° 246° (WSW) 21:25:39 435.215
CINEMA 3 29 Mar 21:18:32 21:22:27 39° 73° (ENE) 21:26:21 145.822/145.860
FUNcube-1 29 Mar 21:19:06 21:21:05 14° 67° (ENE) 21:23:16 145.935
GONETS M04 29 Mar 21:21:41 21:29:33 36° 289° (WNW) 21:37:19
UWE-3 29 Mar 21:23:20 21:26:15 19° 69° (ENE) 21:29:16 435.000/436.395/437.385
CUBEBUG 2 29 Mar 21:28:31 21:31:59 27° 71° (ENE) 21:35:31 437.445
ZACube-1 29 Mar 21:31:09 21:34:01 19° 69° (ENE) 21:37:02 437.345
DANDE 29 Mar 21:31:46 21:34:57 66° 99° (E) 21:37:39 436.750
CANX-2 29 Mar 21:36:24 21:40:26 42° 262° (W) 21:44:29 2200.000
DOVE 4 29 Mar 21:41:30 21:45:47 52° 260° (W) 21:49:54 437.250
DELFI C3 29 Mar 21:50:30 21:54:24 48° 74° (ENE) 21:58:22 145.870
CUTE 1.7 + AOD 2 29 Mar 21:50:33 21:54:22 32° 264° (W) 21:58:11 437.475
GOMX 1 29 Mar 21:55:14 21:59:02 25° 265° (W) 22:02:36 467.674
RS-15 29 Mar 22:05:06 22:14:26 30° 326° (NW) 22:23:46 29.354- 29.394
UKube-1 29 Mar 22:12:08 22:16:14 43° 72° (ENE) 22:20:23 .
AAUSAT CUBESAT 2 29 Mar 22:13:43 22:17:24 29° 265° (W) 22:21:03 437.432
HUMSAT D 29 Mar 22:18:13 22:21:49 31° 72° (ENE) 22:25:31 437.325/437.525
SEEDS 29 Mar 22:20:15 22:23:15 18° 268° (W) 22:26:08 437.485
DX 1 29 Mar 22:22:39 22:26:57 62° 75° (ENE) 22:31:17 434.975-435.025
CUSAT 1 29 Mar 22:25:14 22:26:00 11° 287° (WNW) 22:26:38 437.405
ISS 29 Mar 22:37:14 22:40:21 43° 136° (SE) 22:43:28 145.825
Oscar 11 29 Mar 22:41:54 22:45:46 31° 264° (W) 22:49:38 145.826/435.025
COMPASS 1 29 Mar 22:43:21 22:45:15 12° 271° (W) 22:46:56 437.405
HO-68 29 Mar 22:50:51 22:55:17 16° 271° (W) 22:59:17 435.675
FUNcube-1 29 Mar 22:53:07 22:57:05 46° 261° (W) 23:01:06 145.935
CINEMA 3 29 Mar 22:57:26 22:59:55 15° 269° (W) 23:02:11 145.822/145.860
UWE-3 29 Mar 22:58:55 23:02:38 31° 264° (W) 23:06:19 435.000/436.395/437.385
50 SAT 29 Mar 22:59:21 23:03:13 65° 76° (ENE) 23:07:07 437.505
CUBEBUG 1 29 Mar 23:03:37 23:07:30 31° 71° (ENE) 23:11:25 437.445
VELOX 1 29 Mar 23:04:14 23:08:41 74° 76° (ENE) 23:13:07 145.980
CUBEBUG 2 29 Mar 23:05:27 23:08:43 22° 266° (W) 23:11:54 437.445
NANOSAT C BR1 29 Mar 23:06:27 23:08:14 13° 90° (E) 23:10:15 145.865
ZACube-1 29 Mar 23:06:31 23:10:14 31° 264° (W) 23:13:56 437.345
AISAT 29 Mar 23:09:06 23:13:34 87° 77° (ENE) 23:18:01 437.250
POLYITAN 1 29 Mar 23:10:36 23:12:57 15° 91° (E) 23:15:29 437.675
UNISAT 6 29 Mar 23:13:17 23:17:27 34° 97° (E) 23:21:44 437.425
TIGRISAT 29 Mar 23:23:11 23:27:32 42° 98° (E) 23:31:59 435.000
YUBILEINY 29 Mar 23:25:09 23:28:16 13° 57° (ENE) 23:32:05 435.215
PCSat 29 Mar 23:26:56 23:31:19 25° 49° (NE) 23:35:47 145.827
DELFI C3 29 Mar 23:28:19 23:29:56 12° 271° (W) 23:31:19 145.870
ESTCUBE 1 29 Mar 23:40:01 23:44:34 89° 260° (W) 23:49:09 437.505/2401.250
QB50P1 29 Mar 23:46:20 23:50:17 38° 98° (E) 23:54:15 145.935-145.965
DUCHIFAT 1 29 Mar 23:47:55 23:51:52 38° 98° (E) 23:55:50 145.980
UKube-1 29 Mar 23:50:03 23:52:40 15° 269° (W) 23:55:05 .
ANTELSAT 29 Mar 23:53:34 23:58:11 85° 283° (WNW) 00:02:52 437.575/2403.000
HUMSAT D 29 Mar 23:54:49 23:57:43 18° 268° (W) 00:00:30 437.325/437.525
QB50P2 30 Mar 00:01:09 00:05:21 59° 100° (E) 00:09:33 145.880/145.840
DX 1 30 Mar 00:02:38 00:03:42 11° 271° (W) 00:04:29 434.975-435.025
ISS 30 Mar 00:14:13 00:16:53 22° 333° (NNW) 00:19:31 145.825
RS-15 30 Mar 00:25:34 00:32:04 17° 0° (N) 00:38:43 29.354- 29.394
BUGSAT 1 30 Mar 00:26:30 00:30:33 81° 101° (ESE) 00:34:35 437.445
POPSAT HIP 1 30 Mar 00:29:51 00:34:02 64° 285° (WNW) 00:38:14 437.405
TISAT 1 30 Mar 00:34:13 00:38:25 70° 76° (ENE) 00:42:38 437.305
NANOSAT C BR1 30 Mar 00:40:21 00:44:26 48° 286° (WNW) 00:48:30 145.865
CUBEBUG 1 30 Mar 00:40:29 00:43:56 21° 266° (W) 00:47:16 437.445
POLYITAN 1 30 Mar 00:45:06 00:49:07 41° 287° (WNW) 00:53:07 437.675
SPROUT 30 Mar 00:46:25 00:50:42 72° 259° (WSW) 00:54:59 437.525
ITUPSAT 1 30 Mar 00:48:49 00:51:44 17° 65° (ENE) 00:54:50 437.325
UNISAT 6 30 Mar 00:50:29 00:54:05 22° 291° (WNW) 00:57:36 437.425
TIGRISAT 30 Mar 01:00:51 01:04:02 18° 292° (WNW) 01:07:06 435.000
PCSat 30 Mar 01:09:49 01:15:00 47° 248° (WSW) 01:20:09 145.827
YUBILEINY 30 Mar 01:18:22 01:27:12 70° 80° (E) 01:35:56 435.215
QB50P1 30 Mar 01:23:05 01:25:54 17° 292° (WNW) 01:28:35 145.935-145.965
DUCHIFAT 1 30 Mar 01:24:41 01:27:27 17° 292° (WNW) 01:30:03 145.980
Oscar 19 30 Mar 01:31:03 01:34:08 16° 90° (E) 01:37:27 437.125/150
SWISSCUBE 30 Mar 01:34:26 01:39:05 53° 73° (ENE) 01:43:48 437.505
BEESAT 30 Mar 01:37:19 01:41:57 52° 73° (ENE) 01:46:38 436.000
QB50P2 30 Mar 01:39:13 01:40:50 12° 295° (WNW) 01:42:12 145.880/145.840
STARS 30 Mar 02:09:59 02:11:44 13° 65° (ENE) 02:13:43 437.465
ITUPSAT 1 30 Mar 02:24:34 02:29:15 52° 260° (W) 02:33:58 437.325
ITAMSAT 1 30 Mar 02:37:12 02:41:07 22° 93° (E) 02:45:11 435.822/435.867
RS-15 30 Mar 02:40:17 02:49:46 30° 34° (NE) 02:59:53 29.354- 29.394
Oscar 19 30 Mar 03:08:50 03:13:54 55° 287° (WNW) 03:18:57 437.125/150
KKS-1 30 Mar 03:12:50 03:17:16 82° 255° (WSW) 03:21:44 437.445
SWISSCUBE 30 Mar 03:14:29 03:17:21 15° 270° (W) 03:19:59 437.505
O/OREOS (USA 219) 30 Mar 03:14:29 03:16:28 13° 100° (E) 03:18:41 437.305
YUBILEINY 30 Mar 03:16:41 03:23:17 23° 277° (W) 03:29:28 435.215
BEESAT 30 Mar 03:17:17 03:20:11 15° 269° (W) 03:22:52 436.000
SO-50 30 Mar 03:26:14 03:30:35 30° 49° (NE) 03:34:57 436.795
Gurwin Techsat 1B 30 Mar 03:28:55 03:34:10 58° 100° (E) 03:39:24 435.225
ISS 30 Mar 03:31:14 03:31:53 10° 13° (NNE) 03:32:34 145.825
HORYU 2 30 Mar 03:43:22 03:46:09 16° 92° (E) 03:49:07 437.375
STARS 30 Mar 03:43:27 03:47:47 58° 260° (W) 03:52:06 437.465
AO-7 30 Mar 03:47:24 03:52:11 17° 89° (E) 03:57:31 29.400- 29.500
JAS-2 30 Mar 03:54:18 03:58:40 17° 84° (E) 04:03:16 435.910
ITAMSAT 1 30 Mar 04:15:59 04:20:49 41° 290° (WNW) 04:25:37 435.822/435.867
M-CUBED/EXP-1 PRIME 30 Mar 04:19:24 04:21:37 15° 59° (ENE) 04:24:06 437.505
VERMONT LUNAR 30 Mar 04:27:46 04:29:46 15° 147° (SSE) 04:31:50 437.305
AIST 1 30 Mar 04:39:47 04:44:12 88° 98° (E) 04:48:37
O/OREOS (USA 219) 30 Mar 04:50:57 04:55:27 55° 294° (WNW) 05:00:00 437.305
RS-15 30 Mar 04:52:25 05:04:01 89° 64° (ENE) 05:16:07 29.354- 29.394
MOZHAYETS 4 30 Mar 04:52:34 04:57:07 62° 75° (ENE) 05:01:43
ISS 30 Mar 05:06:04 05:09:04 34° 32° (NNE) 05:12:04 145.825
SO-50 30 Mar 05:06:42 05:11:11 34° 246° (WSW) 05:15:33 436.795
Gurwin Techsat 1B 30 Mar 05:10:13 05:13:44 18° 296° (WNW) 05:17:02 435.225
PHONESAT 2.4 30 Mar 05:14:06 05:16:11 15° 146° (SE) 05:18:20 2401.200-2431.200
HORYU 2 30 Mar 05:18:46 05:23:03 43° 288° (WNW) 05:27:18 437.375
AUBIESAT-1 30 Mar 05:26:52 05:30:51 71° 71° (ENE) 05:35:13 437.475
GONETS M04 30 Mar 05:36:59 05:43:10 22° 64° (ENE) 05:49:46
JAS-2 30 Mar 05:37:04 05:44:51 85° 285° (WNW) 05:51:55 435.910
AO-7 30 Mar 05:37:48 05:46:08 88° 288° (WNW) 05:54:28 29.400- 29.500
PRISM 30 Mar 05:38:58 05:39:41 11° 64° (ENE) 05:40:39 437.425
M-CUBED/EXP-1 PRIME 30 Mar 05:52:11 05:56:03 50° 257° (WSW) 06:00:17 437.505
VERMONT LUNAR 30 Mar 06:03:47 06:07:06 67° 161° (SSE) 06:10:26 437.305
STRAND 1 30 Mar 06:11:09 06:14:46 20° 66° (ENE) 06:18:33 437.568
MOZHAYETS 4 30 Mar 06:33:03 06:34:51 12° 272° (W) 06:36:23
CUBESAT XI-V 30 Mar 06:41:41 06:46:22 68° 75° (ENE) 06:51:04 437.345
ISS 30 Mar 06:42:45 06:45:21 22° 228° (SW) 06:47:54 145.825
CUTE-I 30 Mar 06:42:46 06:47:13 28° 95° (E) 06:51:46 437.470
Cubesat XI-IV 30 Mar 06:43:09 06:47:40 28° 95° (E) 06:52:15 437.490
PHONESAT 2.4 30 Mar 06:50:39 06:54:08 64° 161° (SSE) 06:57:38 2401.200-2431.200
RS-15 30 Mar 07:06:52 07:15:21 22° 257° (WSW) 07:23:19 29.354- 29.394
PRISM 30 Mar 07:10:30 07:14:41 66° 259° (WSW) 07:18:54 437.425
CUSAT 1 30 Mar 07:16:38 07:19:49 19° 75° (ENE) 07:23:51 437.405
JAS-2 30 Mar 07:23:59 07:28:48 17° 302° (WNW) 07:33:04 435.910
GONETS M04 30 Mar 07:32:19 07:41:09 78° 265° (W) 07:49:58
AO-7 30 Mar 07:32:23 07:37:58 20° 306° (NW) 07:43:12 29.400- 29.500
VERMONT LUNAR 30 Mar 07:41:33 07:44:52 59° 357° (N) 07:48:12 437.305
STRAND 1 30 Mar 07:48:43 07:53:40 47° 261° (W) 07:58:38 437.568
DANDE 30 Mar 08:10:20 08:14:21 47° 80° (E) 08:19:47 436.750
CUTE-I 30 Mar 08:22:34 08:27:22 34° 291° (WNW) 08:32:05 437.470
CUBESAT XI-V 30 Mar 08:22:56 08:24:22 11° 272° (W) 08:25:30 437.345
Cubesat XI-IV 30 Mar 08:23:02 08:27:49 34° 291° (WNW) 08:32:31 437.490
PHONESAT 2.4 30 Mar 08:29:02 08:32:32 61° 357° (N) 08:36:03 2401.200-2431.200
HO-68 30 Mar 08:30:56 08:34:50 16° 88° (E) 08:39:10 435.675
CUSAT 1 30 Mar 08:58:16 09:02:34 42° 263° (W) 09:08:11 437.405
BRITE-PL 30 Mar 09:15:01 09:19:07 49° 99° (E) 09:23:26 437.365/2234.400
CINEMA 3 30 Mar 09:16:39 09:17:44 11° 89° (E) 09:19:08 145.822/145.860
VERMONT LUNAR 30 Mar 09:19:21 09:22:43 86° 13° (NNE) 09:26:05 437.305
CANX-2 30 Mar 09:23:10 09:27:08 35° 97° (E) 09:31:06 2200.000
GONETS M04 30 Mar 09:32:46 09:36:45 13° 282° (WNW) 09:40:01
CUTE 1.7 + AOD 2 30 Mar 09:36:49 09:40:59 46° 98° (E) 09:45:08 437.475
DOVE 4 30 Mar 09:41:20 09:45:28 41° 98° (E) 09:49:51 437.250
DANDE 30 Mar 09:54:59 09:57:42 15° 265° (W) 10:00:33 436.750
GOMX 1 30 Mar 09:56:55 10:01:14 86° 281° (W) 10:05:46 467.674
BEESAT 2 30 Mar 09:57:04 10:00:34 28° 114° (ESE) 10:04:12 435.950
AAUSAT CUBESAT 2 30 Mar 09:57:46 10:01:51 46° 98° (E) 10:05:56 437.432
SEEDS 30 Mar 10:04:34 10:08:53 82° 102° (ESE) 10:13:10 437.485
POLYITAN 1 30 Mar 10:04:56 10:05:13 10° 65° (ENE) 10:05:45 437.675
PHONESAT 2.4 30 Mar 10:07:29 10:11:02 84° 13° (NNE) 10:14:35 2401.200-2431.200
UNISAT 6 30 Mar 10:11:41 10:15:06 24° 69° (ENE) 10:18:39 437.425
DX 1 30 Mar 10:14:48 10:16:10 12° 90° (E) 10:17:48 434.975-435.025
HO-68 30 Mar 10:16:16 10:23:30 84° 287° (WNW) 10:30:42 435.675
TIGRISAT 30 Mar 10:21:10 10:24:51 30° 71° (ENE) 10:28:39 435.000
COMPASS 1 30 Mar 10:25:37 10:29:52 70° 284° (WNW) 10:34:04 437.405
Oscar 11 30 Mar 10:30:10 10:34:25 50° 99° (E) 10:38:40 145.826/435.025
BEESAT 3 30 Mar 10:32:21 10:36:26 88° 123° (ESE) 10:40:35 437.485
QB50P1 30 Mar 10:38:15 10:41:38 24° 70° (ENE) 10:45:07 145.935-145.965
DUCHIFAT 1 30 Mar 10:39:32 10:42:55 25° 70° (ENE) 10:46:23 145.980
FUNcube-1 30 Mar 10:42:40 10:46:42 35° 97° (E) 10:50:50 145.935
UWE-3 30 Mar 10:49:19 10:53:39 53° 100° (E) 10:58:07 435.000/436.395/437.385
CINEMA 3 30 Mar 10:50:59 10:55:22 64° 284° (WNW) 10:59:58 145.822/145.860
ANTELSAT 30 Mar 10:51:22 10:55:36 70° 76° (ENE) 10:59:55 437.575/2403.000
QB50P2 30 Mar 10:52:54 10:56:46 36° 72° (ENE) 11:00:40 145.880/145.840
BRITE-PL 30 Mar 10:55:15 10:57:24 13° 292° (WNW) 10:59:23 437.365/2234.400
ZACube-1 30 Mar 10:55:45 11:00:03 50° 99° (E) 11:04:26 437.345
CUBEBUG 2 30 Mar 10:56:20 11:00:48 79° 102° (ESE) 11:05:23 437.445
VERMONT LUNAR 30 Mar 10:57:22 11:00:13 25° 209° (SSW) 11:03:02 437.305
VELOX 1 30 Mar 10:57:44 11:00:16 15° 91° (E) 11:02:59 145.980
CANX-2 30 Mar 10:59:45 11:02:51 19° 291° (WNW) 11:05:49 2200.000
AISAT 30 Mar 11:02:29 11:05:28 18° 93° (E) 11:08:36 437.250
DELFI C3 30 Mar 11:06:33 11:10:40 77° 284° (WNW) 11:14:45 145.870
AIST 2 30 Mar 11:14:01 11:18:14 69° 119° (ESE) 11:22:31 435.215
CUTE 1.7 + AOD 2 30 Mar 11:14:02 11:16:34 15° 293° (WNW) 11:18:56 437.475
BUGSAT 1 30 Mar 11:15:09 11:19:07 45° 74° (ENE) 11:23:05 437.445
DOVE 4 30 Mar 11:20:09 11:23:02 17° 291° (WNW) 11:25:51 437.250
POPSAT HIP 1 30 Mar 11:21:04 11:25:16 78° 76° (ENE) 11:29:29 437.405
NANOSAT C BR1 30 Mar 11:31:14 11:35:27 80° 258° (WSW) 11:39:41 145.865
AAUSAT CUBESAT 2 30 Mar 11:34:46 11:37:09 14° 293° (WNW) 11:39:21 437.432
ESTCUBE 1 30 Mar 11:35:07 11:38:30 21° 93° (E) 11:41:58 437.505/2401.250
BEESAT 2 30 Mar 11:35:14 11:38:43 25° 310° (NW) 11:42:12 435.950
POLYITAN 1 30 Mar 11:36:27 11:40:39 68° 258° (WSW) 11:44:52 437.675
UKube-1 30 Mar 11:36:56 11:41:17 81° 284° (WNW) 11:45:35 .
HUMSAT D 30 Mar 11:38:45 11:43:02 78° 102° (ESE) 11:47:20 437.325/437.525
PHONESAT 2.4 30 Mar 11:46:06 11:49:11 28° 209° (SSW) 11:52:15 2401.200-2431.200
UNISAT 6 30 Mar 11:48:15 11:51:51 26° 265° (W) 11:55:26 437.425
DX 1 30 Mar 11:48:36 11:52:51 56° 286° (WNW) 11:57:04 434.975-435.025
TIGRISAT 30 Mar 11:58:26 12:01:42 21° 267° (W) 12:04:53 435.000
HO-68 30 Mar 12:06:09 12:10:20 16° 303° (WNW) 12:14:08 435.675
Oscar 11 30 Mar 12:07:48 12:10:14 14° 294° (WNW) 12:12:28 145.826/435.025
50 SAT 30 Mar 12:13:17 12:17:18 61° 284° (WNW) 12:21:17 437.505
BEESAT 3 30 Mar 12:13:51 12:15:09 11° 319° (NW) 12:16:17 437.485
QB50P1 30 Mar 12:13:56 12:17:29 25° 265° (W) 12:20:56 145.935-145.965
DUCHIFAT 1 30 Mar 12:15:11 12:18:42 25° 265° (W) 12:22:09 145.980
FUNcube-1 30 Mar 12:19:35 12:22:51 20° 291° (WNW) 12:26:03 145.935
TISAT 1 30 Mar 12:22:27 12:23:59 12° 90° (E) 12:25:45 437.305
YUBILEINY 30 Mar 12:25:57 12:29:56 15° 79° (E) 12:34:36 435.215
UWE-3 30 Mar 12:27:27 12:29:50 14° 293° (WNW) 12:32:04 435.000/436.395/437.385
CUBEBUG 1 30 Mar 12:29:39 12:34:00 78° 102° (ESE) 12:38:19 437.445
QB50P2 30 Mar 12:30:02 12:32:51 17° 268° (W) 12:35:32 145.880/145.840
VELOX 1 30 Mar 12:32:56 12:37:07 43° 288° (WNW) 12:41:16 145.980
ZACube-1 30 Mar 12:33:34 12:36:04 15° 293° (WNW) 12:38:25 437.345
SPROUT 30 Mar 12:35:18 12:38:34 22° 94° (E) 12:41:56 437.525
AISAT 30 Mar 12:38:11 12:42:15 37° 289° (WNW) 12:46:17 437.250
Oscar 19 30 Mar 12:46:32 12:50:15 21° 66° (ENE) 12:54:09 437.125/150
BUGSAT 1 30 Mar 12:52:49 12:54:54 13° 269° (W) 12:56:45 437.445
AIST 2 30 Mar 12:54:59 12:57:21 14° 317° (NW) 12:59:36 435.215
ESTCUBE 1 30 Mar 13:11:24 13:15:28 33° 289° (WNW) 13:19:28 437.505/2401.250
O/OREOS (USA 219) 30 Mar 13:23:53 13:27:18 21° 58° (ENE) 13:30:47 437.305
SWISSCUBE 30 Mar 13:37:46 13:40:24 15° 90° (E) 13:43:16 437.505
BEESAT 30 Mar 13:40:34 13:43:09 15° 90° (E) 13:45:57 436.000
ITAMSAT 1 30 Mar 13:53:40 13:58:08 30° 69° (ENE) 14:02:42 435.822/435.867
TISAT 1 30 Mar 13:56:05 14:00:09 50° 286° (WNW) 14:04:13 437.305
PCSat 30 Mar 14:07:27 14:11:54 27° 109° (ESE) 14:16:29 145.827
SPROUT 30 Mar 14:10:57 14:14:42 29° 289° (WNW) 14:18:23 437.525
YUBILEINY 30 Mar 14:16:48 14:25:36 84° 95° (E) 14:34:29 435.215
Oscar 19 30 Mar 14:24:30 14:29:21 43° 262° (W) 14:34:14 437.125/150
ITUPSAT 1 30 Mar 14:26:40 14:31:16 45° 99° (E) 14:35:50 437.325
HORYU 2 30 Mar 14:41:27 14:43:33 14° 65° (ENE) 14:45:52 437.375
AO-7 30 Mar 14:45:00 14:51:06 24° 57° (ENE) 14:57:27 29.400- 29.500
Gurwin Techsat 1B 30 Mar 14:48:31 14:53:49 80° 76° (ENE) 14:59:10 435.225
AIST 1 30 Mar 14:49:33 14:52:31 18° 72° (ENE) 14:55:36
JUGNU 30 Mar 14:55:45 14:57:43 12° 176° (S) 14:59:42 437.505
O/OREOS (USA 219) 30 Mar 15:02:42 15:06:52 36° 255° (WSW) 15:10:57 437.305
KKS-1 30 Mar 15:06:12 15:09:32 21° 93° (E) 15:13:00 437.445
SWISSCUBE 30 Mar 15:14:00 15:18:39 52° 287° (WNW) 15:23:16 437.505
BEESAT 30 Mar 15:16:44 15:21:24 53° 287° (WNW) 15:26:01 436.000
ITAMSAT 1 30 Mar 15:32:59 15:37:36 31° 264° (W) 15:42:10 435.822/435.867
STARS 30 Mar 15:35:03 15:38:48 27° 96° (E) 15:42:37 437.465
